Regional Weather Roundup
Issued by NWS Northern Indiana

Home | Current Version | Previous Version | Text Only | Print | Product List | Glossary Off
Versions: 1 2 3 4 5 6 7 8 9 10 11 12 13 14 15 16 17 18 19 20 21 22 23 24 25 26 27 28 29 30 31 32 33 34 35 36 37 38 39 40 41 42 43 44 45 46 47 48 49 50

000
ASUS43 KIWX 200500
RWRIWX

KIWX WEATHER ROUNDUP
NATIONAL WEATHER SERVICE NORTHERN INDIANA
100 AM EDT WED AUG 20 2014

NOTE: "FAIR" INDICATES FEW OR NO CLOUDS BELOW 12,000 FEET WITH NO
SIGNIFICANT WEATHER AND/OR OBSTRUCTIONS TO VISIBILITY.

* THESE STATIONS ARE NOT UNDER NWS QUALITY CONTROL. THEY ALSO MAY NOT
  REPORT WEATHER SUCH AS PRECIPITATION OR FOG.

INZ001>027-200600-
NORTHERN INDIANA

CITY           SKY/WX    TMP DP  RH WIND       PRES   REMARKS
VALPARAISO     PTCLDY    68  65  90 SW5       29.80R
KNOX*          CLEAR     67  64  89 SW6       29.79S
SOUTH BEND     PTCLDY    72  65  78 SW8       29.78F
GOSHEN         PTCLDY    70  66  87 SW9       29.79S
MONTICELLO*    PTCLDY    65  64  97 SW3       29.80F
WARSAW*        PTCLDY    68  64  88 SW6       29.80S
ANGOLA*        CLEAR     66  57  72 CALM      29.80S
FORT WAYNE     CLOUDY    69  67  93 SW5       29.80F
PERU/GRISSOM   MOCLDY    67  67 100 SW6       29.81S

$$
INZ028>050-200600-
CENTRAL INDIANA

CITY           SKY/WX    TMP DP  RH WIND       PRES   REMARKS
LAFAYETTE      PTCLDY    65  64  97 W3        29.81F
KOKOMO*        MOCLDY    66  63  88 SW7       29.81F
MUNCIE*        CLOUDY    71  65  81 SW8       29.81F
INDIANAPOLIS   CLOUDY    68  62  81 S5        29.83F

$$
MIZ043>046-050>051-056>058-064>065-071>073-077>080-200600-
SOUTHWEST LOWER MICHIGAN

CITY           SKY/WX    TMP DP  RH WIND       PRES   REMARKS
BATTLE CREEK   MOCLDY    69  65  86 SW6       29.79R
BENTON HARBOR  CLOUDY    70  66  87 SW5       29.76F
COLDWATER*     MOCLDY    69  67  93 CALM      29.79S
HILLSDALE*     CLOUDY    66  66 100 CALM      29.81F
HOLLAND        CLOUDY    70  67  90 CALM      29.77R
GRAND RAPIDS   CLOUDY    70  69  97 S3        29.77R FOG
KALAMAZOO      MOCLDY    69  66  90 S7        29.78S
STURGIS*       MOCLDY    68  66  94 W3        29.79S
THREE RIVERS*  MOCLDY    70  68  93 SW6       29.79S

$$
OHZ001>008-015>018-024>025-200600-
NORTHWEST OHIO

CITY           SKY/WX    TMP DP  RH WIND       PRES   REMARKS
DEFIANCE       CLOUDY    70  65  84 S7        29.80F
FINDLAY        CLOUDY    69  67  93 SE5       29.80F
TOLEDO EXPRESS MOCLDY    67  65  93 CALM      29.79F
TOLEDO METCALF CLOUDY    68  64  87 S5        29.81F
LIMA           MOCLDY    69  66  90 SE6       29.81F

$$
&&



USA.gov is the U.S. government's official web portal to all federal, state and local government web resources and services.